| time (UTC) | temp F | wind direction | speed knots | gust knots | rain 1hr in | rain 24hr in | rain mn in | humidity % | barometer mb |
| 20260505200532 | 45 | 191 | 0.9 | 2.6 | 0.00 | 0.00 | 0.00 | 86 | 1000.9 |
| 20260505200034 | 45 | 211 | 1.7 | 2.6 | 0.00 | 0.00 | 0.00 | 86 | 1000.9 |
| 20260505195531 | 45 | 185 | 0.0 | 4.3 | 0.00 | 0.00 | 0.00 | 87 | 1000.8 |
| 20260505195030 | 45 | 190 | 1.7 | 3.5 | 0.00 | 0.00 | 0.00 | 86 | 1000.8 |
| 20260505194529 | 45 | 175 | 0.9 | 2.6 | 0.00 | 0.00 | 0.00 | 86 | 1000.6 |
| 20260505194029 | 45 | 128 | 0.9 | 2.6 | 0.00 | 0.00 | 0.00 | 86 | 1000.5 |
| 20260505193529 | 45 | 186 | 0.0 | 2.6 | 0.00 | 0.00 | 0.00 | 86 | 1000.6 |
| 20260505193028 | 44 | 173 | 0.9 | 2.6 | 0.00 | 0.00 | 0.00 | 86 | 1000.5 |
| 20260505192628 | 44 | 173 | 0.9 | 3.5 | 0.00 | 0.00 | 0.00 | 87 | 1000.5 |
| 20260505192028 | 44 | 114 | 0.9 | 2.6 | 0.00 | 0.00 | 0.00 | 87 | 1000.5 |
| 20260505191528 | 44 | 147 | 0.9 | 2.6 | 0.00 | 0.00 | 0.00 | 87 | 1000.4 |
| 20260505191126 | 44 | 148 | 0.9 | 2.6 | 0.00 | 0.00 | 0.00 | 87 | 1000.5 |
| 20260505190530 | 43 | 171 | 0.0 | 2.6 | 0.00 | 0.00 | 0.00 | 87 | 1000.3 |
| 20260505190025 | 43 | 172 | 0.0 | 1.7 | 0.00 | 0.00 | 0.00 | 87 | 1000.4 |
| 20260505185526 | 43 | 221 | 0.0 | 2.6 | 0.00 | 0.00 | 0.00 | 87 | 1000.4 |
| 20260505185025 | 43 | 221 | 0.0 | 2.6 | 0.00 | 0.00 | 0.00 | 87 | 1000.4 |
| 20260505184528 | 43 | 174 | 0.0 | 1.7 | 0.00 | 0.00 | 0.00 | 87 | 1000.3 |
| 20260505184026 | 43 | 174 | 0.9 | 2.6 | 0.00 | 0.00 | 0.00 | 88 | 1000.5 |
| 20260505183526 | 43 | 173 | 0.9 | 2.6 | 0.00 | 0.00 | 0.00 | 87 | 1000.4 |
| 20260505183040 | 43 | 193 | 0.0 | 0.0 | 0.00 | 0.00 | 0.00 | 87 | 1000.4 |
| 20260505182526 | 43 | 193 | 0.0 | 1.7 | 0.00 | 0.00 | 0.00 | 86 | 1000.3 |
| 20260505182025 | 43 | 193 | 0.0 | 1.7 | 0.00 | 0.00 | 0.00 | 86 | 1000.4 |
| 20260505181526 | 44 | 196 | 0.0 | 2.6 | 0.00 | 0.00 | 0.00 | 85 | 1000.5 |
| 20260505181025 | 44 | 197 | 0.0 | 2.6 | 0.00 | 0.00 | 0.00 | 84 | 1000.6 |
| 20260505180524 | 44 | 178 | 0.0 | 2.6 | 0.00 | 0.00 | 0.00 | 82 | 1000.5 |
| 20260505180024 | 45 | 183 | 0.9 | 2.6 | 0.00 | 0.00 | 0.00 | 80 | 1000.4 |
| 20260505175524 | 45 | 175 | 0.9 | 2.6 | 0.00 | 0.00 | 0.00 | 79 | 1000.5 |
| 20260505175023 | 45 | 223 | 0.0 | 2.6 | 0.00 | 0.00 | 0.00 | 79 | 1000.5 |
| 20260505174523 | 45 | 214 | 0.9 | 2.6 | 0.00 | 0.00 | 0.00 | 79 | 1000.4 |
| 20260505174023 | 46 | 137 | 1.7 | 4.3 | 0.00 | 0.00 | 0.00 | 78 | 1000.3 |
| 20260505173526 | 46 | 154 | 0.9 | 4.3 | 0.00 | 0.00 | 0.00 | 79 | 1000.2 |
| 20260505173023 | 45 | 138 | 0.0 | 4.3 | 0.00 | 0.00 | 0.00 | 79 | 1000.1 |
| 20260505172524 | 45 | 215 | 1.7 | 4.3 | 0.00 | 0.00 | 0.00 | 80 | 1000.2 |
| 20260505172022 | 44 | 230 | 1.7 | 4.3 | 0.00 | 0.00 | 0.00 | 81 | 1000.1 |
| 20260505171522 | 43 | 170 | 0.0 | 3.5 | 0.00 | 0.00 | 0.00 | 82 | 1000.0 |
| 20260505171022 | 42 | 146 | 1.7 | 3.5 | 0.00 | 0.00 | 0.00 | 84 | 1000.0 |
| 20260505170519 | 41 | 115 | 0.0 | 1.7 | 0.00 | 0.00 | 0.00 | 84 | 999.8 |
| 20260505170019 | 41 | 115 | 0.9 | 2.6 | 0.00 | 0.00 | 0.00 | 85 | 999.9 |
| 20260505165518 | 40 | 115 | 0.9 | 2.6 | 0.00 | 0.00 | 0.00 | 86 | 999.9 |
| 20260505165017 | 40 | 120 | 0.9 | 2.6 | 0.00 | 0.00 | 0.00 | 86 | 1000.1 |
| 20260505164517 | 40 | 116 | 0.9 | 2.6 | 0.00 | 0.00 | 0.00 | 86 | 999.9 |
| 20260505164015 | 39 | 190 | 0.0 | 0.0 | 0.00 | 0.00 | 0.00 | 86 | 999.8 |
| 20260505163515 | 39 | 189 | 0.0 | 0.0 | 0.00 | 0.00 | 0.00 | 86 | 999.7 |
| 20260505163015 | 39 | 189 | 0.0 | 0.0 | 0.00 | 0.00 | 0.00 | 86 | 999.7 |
| 20260505162513 | 39 | 190 | 0.0 | 0.0 | 0.00 | 0.00 | 0.00 | 87 | 999.7 |
| 20260505162013 | 39 | 190 | 0.0 | 0.0 | 0.00 | 0.00 | 0.00 | 87 | 999.7 |
| 20260505161512 | 39 | 190 | 0.0 | 0.0 | 0.00 | 0.00 | 0.00 | 86 | 999.8 |
| 20260505161012 | 39 | 189 | 0.0 | 1.7 | 0.00 | 0.00 | 0.00 | 87 | 999.8 |
| 20260505160512 | 39 | 189 | 0.0 | 1.7 | 0.00 | 0.00 | 0.00 | 87 | 999.8 |
| 20260505153010 | 37 | 168 | 0.0 | 1.7 | 0.00 | 0.00 | 0.00 | 93 | 999.4 |
| 20260505152509 | 37 | 50 | 0.0 | 0.0 | 0.00 | 0.00 | 0.00 | 93 | 999.5 |
| 20260505152010 | 37 | 50 | 0.0 | 0.0 | 0.00 | 0.00 | 0.00 | 92 | 999.5 |
| 20260505151510 | 36 | 50 | 0.0 | 0.0 | 0.00 | 0.00 | 0.00 | 92 | 999.4 |
| 20260505151007 | 36 | 50 | 0.0 | 0.0 | 0.00 | 0.00 | 0.00 | 92 | 999.5 |
| 20260505150507 | 36 | 50 | 0.0 | 0.0 | 0.00 | 0.00 | 0.00 | 92 | 999.5 |
| 20260505140600 | 36 | 50 | 0.0 | 0.0 | 0.00 | 0.00 | 0.00 | 92 | 999.3 |
| 20260505140121 | 36 | 50 | 0.0 | 0.0 | 0.00 | 0.00 | 0.00 | 92 | 999.3 |
| 20260505124558 | 36 | 9 | 0.0 | 0.0 | 0.00 | 0.00 | 0.00 | 89 | 999.0 |
| 20260505124049 | 36 | 9 | 0.0 | 0.0 | 0.00 | 0.00 | 0.00 | 89 | 998.9 |
| 20260505123548 | 36 | 9 | 0.0 | 0.0 | 0.00 | 0.00 | 0.00 | 89 | 998.8 |
| 20260505123048 | 36 | 9 | 0.0 | 0.0 | 0.00 | 0.00 | 0.00 | 87 | 998.8 |
| 20260505122545 | 37 | 9 | 0.0 | 0.0 | 0.00 | 0.00 | 0.00 | 88 | 999.0 |
| 20260505122045 | 37 | 9 | 0.0 | 0.0 | 0.00 | 0.00 | 0.00 | 88 | 998.9 |
| 20260505121544 | 38 | 9 | 0.0 | 0.0 | 0.00 | 0.00 | 0.00 | 88 | 999.0 |
| 20260505121043 | 38 | 9 | 0.0 | 0.0 | 0.00 | 0.00 | 0.00 | 88 | 999.0 |
| 20260505120542 | 38 | 9 | 0.0 | 0.0 | 0.00 | 0.00 | 0.00 | 87 | 999.0 |
| 20260505120048 | 39 | 9 | 0.0 | 0.0 | 0.00 | 0.00 | 0.00 | 87 | 999.0 |
| 20260505115538 | 39 | 9 | 0.0 | 0.0 | 0.00 | 0.00 | 0.00 | 87 | 998.8 |
| 20260505115039 | 39 | 9 | 0.0 | 0.0 | 0.00 | 0.00 | 0.00 | 87 | 998.8 |
| 20260505114537 | 39 | 9 | 0.0 | 0.0 | 0.00 | 0.00 | 0.00 | 87 | 999.0 |
| 20260505114037 | 39 | 9 | 0.0 | 0.0 | 0.00 | 0.00 | 0.00 | 86 | 998.9 |
| 20260505113635 | 40 | 9 | 0.0 | 0.0 | 0.00 | 0.00 | 0.00 | 86 | 999.1 |
| 20260505113035 | 40 | 9 | 0.0 | 0.0 | 0.00 | 0.00 | 0.00 | 85 | 999.2 |
| 20260505112536 | 40 | 9 | 0.0 | 0.0 | 0.00 | 0.00 | 0.00 | 84 | 999.2 |
| 20260505112031 | 41 | 9 | 0.0 | 0.0 | 0.00 | 0.00 | 0.00 | 84 | 999.2 |
| 20260505111531 | 41 | 10 | 0.0 | 0.0 | 0.00 | 0.00 | 0.00 | 84 | 999.1 |
| 20260505111029 | 41 | 10 | 0.0 | 0.0 | 0.00 | 0.00 | 0.00 | 84 | 999.1 |
| 20260505110532 | 41 | 10 | 0.0 | 0.0 | 0.00 | 0.00 | 0.00 | 84 | 999.1 |
| 20260505102027 | 43 | 10 | 0.0 | 0.0 | 0.00 | 0.00 | 0.00 | 82 | 999.5 |
| 20260505101526 | 43 | 9 | 0.0 | 0.0 | 0.00 | 0.00 | 0.00 | 82 | 999.5 |
| 20260505101022 | 43 | 9 | 0.0 | 0.0 | 0.00 | 0.00 | 0.00 | 82 | 999.5 |
| 20260505100522 | 43 | 9 | 0.0 | 0.0 | 0.00 | 0.00 | 0.00 | 82 | 999.5 |
| 20260505100024 | 43 | 9 | 0.0 | 1.7 | 0.00 | 0.00 | 0.00 | 82 | 999.6 |
| 20260505095522 | 43 | 9 | 0.0 | 1.7 | 0.00 | 0.00 | 0.00 | 82 | 999.6 |
| 20260505095021 | 43 | 9 | 0.9 | 1.7 | 0.00 | 0.00 | 0.00 | 81 | 999.6 |
| 20260505094526 | 43 | 9 | 0.9 | 1.7 | 0.00 | 0.00 | 0.00 | 81 | 999.7 |
| 20260505094018 | 43 | 46 | 0.0 | 0.0 | 0.00 | 0.00 | 0.00 | 81 | 999.8 |
| 20260505093519 | 43 | 46 | 0.0 | 0.0 | 0.00 | 0.00 | 0.00 | 81 | 999.9 |
| 20260505093017 | 43 | 46 | 0.0 | 0.0 | 0.00 | 0.00 | 0.00 | 81 | 1000.0 |
| 20260505092517 | 43 | 46 | 0.0 | 0.0 | 0.00 | 0.00 | 0.00 | 81 | 1000.0 |
| 20260505092018 | 43 | 46 | 0.0 | 0.0 | 0.00 | 0.00 | 0.00 | 81 | 1000.1 |
| 20260505091516 | 43 | 46 | 0.0 | 0.0 | 0.00 | 0.00 | 0.00 | 81 | 1000.2 |
| 20260505091014 | 43 | 46 | 0.0 | 0.0 | 0.00 | 0.00 | 0.00 | 82 | 1000.4 |
| 20260505090514 | 43 | 46 | 0.0 | 0.0 | 0.00 | 0.00 | 0.00 | 82 | 1000.5 |
| 20260505090014 | 43 | 46 | 0.0 | 0.0 | 0.00 | 0.00 | 0.00 | 82 | 1000.5 |
| 20260505085517 | 43 | 46 | 0.0 | 0.0 | 0.00 | 0.00 | 0.00 | 82 | 1000.5 |
| 20260505085016 | 43 | 46 | 0.0 | 0.0 | 0.00 | 0.00 | 0.00 | 82 | 1000.5 |
| 20260505084517 | 43 | 46 | 0.0 | 0.0 | 0.00 | 0.00 | 0.00 | 82 | 1000.7 |
| 20260505084011 | 43 | 46 | 0.0 | 0.0 | 0.00 | 0.00 | 0.00 | 81 | 1000.7 |
| 20260505083510 | 43 | 46 | 0.0 | 0.0 | 0.00 | 0.00 | 0.00 | 81 | 1000.7 |
| 20260505083009 | 44 | 46 | 0.0 | 0.0 | 0.00 | 0.00 | 0.00 | 81 | 1000.8 |
| 20260505082508 | 44 | 46 | 0.0 | 0.0 | 0.00 | 0.00 | 0.00 | 80 | 1000.9 |
| 20260505082007 | 44 | 46 | 0.0 | 0.0 | 0.00 | 0.00 | 0.00 | 79 | 1000.9 |
| 20260505081507 | 45 | 46 | 0.0 | 0.0 | 0.00 | 0.00 | 0.00 | 78 | 1000.9 |
| 20260505081005 | 45 | 46 | 0.0 | 0.0 | 0.00 | 0.00 | 0.00 | 77 | 1001.0 |
| 20260505080503 | 45 | 46 | 0.0 | 0.0 | 0.00 | 0.00 | 0.00 | 76 | 1001.1 |
| 20260505080002 | 46 | 46 | 0.0 | 0.0 | 0.00 | 0.00 | 0.00 | 76 | 1001.1 |
| 20260505075502 | 46 | 46 | 0.0 | 0.0 | 0.00 | 0.00 | 0.00 | 75 | 1001.2 |
| 20260505075003 | 46 | 46 | 0.0 | 0.0 | 0.00 | 0.00 | 0.00 | 75 | 1001.2 |
| 20260505074600 | 47 | 46 | 0.0 | 0.0 | 0.00 | 0.00 | 0.00 | 74 | 1001.3 |
| 20260505074100 | 47 | 46 | 0.0 | 0.0 | 0.00 | 0.00 | 0.00 | 74 | 1001.5 |
| 20260505073600 | 47 | 46 | 0.0 | 0.0 | 0.00 | 0.00 | 0.00 | 73 | 1001.6 |
| 20260505073104 | 47 | 46 | 0.0 | 0.0 | 0.00 | 0.00 | 0.00 | 73 | 1001.5 |
| 20260505072559 | 48 | 46 | 0.0 | 0.0 | 0.00 | 0.00 | 0.00 | 72 | 1001.5 |
| 20260505072059 | 48 | 46 | 0.0 | 0.0 | 0.00 | 0.00 | 0.00 | 72 | 1001.5 |
| 20260505071559 | 48 | 46 | 0.0 | 0.0 | 0.00 | 0.00 | 0.00 | 72 | 1001.5 |
| 20260505071100 | 48 | 46 | 0.0 | 0.0 | 0.00 | 0.00 | 0.00 | 71 | 1001.5 |
| 20260505070558 | 49 | 46 | 0.0 | 0.0 | 0.00 | 0.00 | 0.00 | 71 | 1001.6 |
| 20260505070058 | 49 | 46 | 0.0 | 0.0 | 0.00 | 0.00 | 0.00 | 70 | 1001.6 |
| 20260505065556 | 50 | 46 | 0.0 | 0.0 | 0.00 | 0.00 | 0.00 | 68 | 1001.8 |
| 20260505065057 | 50 | 46 | 0.0 | 0.0 | 0.00 | 0.00 | 0.00 | 68 | 1001.6 |
| 20260505064600 | 50 | 46 | 0.0 | 0.0 | 0.00 | 0.00 | 0.00 | 67 | 1001.8 |
| 20260505064055 | 50 | 46 | 0.0 | 0.9 | 0.00 | 0.00 | 0.00 | 67 | 1001.9 |
| 20260505063555 | 51 | 46 | 0.0 | 1.7 | 0.00 | 0.00 | 0.00 | 67 | 1002.0 |
| 20260505063112 | 51 | 46 | 0.0 | 2.6 | 0.00 | 0.00 | 0.00 | 66 | 1001.9 |
| 20260505062556 | 51 | 46 | 0.9 | 2.6 | 0.00 | 0.00 | 0.00 | 65 | 1001.9 |
| 20260505062053 | 51 | 107 | 0.0 | 3.5 | 0.00 | 0.00 | 0.00 | 65 | 1002.1 |
| 20260505061556 | 51 | 96 | 0.9 | 3.5 | 0.00 | 0.00 | 0.00 | 65 | 1002.1 |
| 20260505061052 | 51 | 96 | 0.9 | 5.2 | 0.00 | 0.00 | 0.00 | 65 | 1002.1 |
| 20260505060552 | 51 | 86 | 0.9 | 7.0 | 0.00 | 0.00 | 0.00 | 64 | 1002.3 |
| 20260505060054 | 52 | 73 | 0.9 | 7.0 | 0.00 | 0.00 | 0.00 | 64 | 1002.3 |
| 20260505055553 | 52 | 54 | 1.7 | 5.2 | 0.00 | 0.00 | 0.00 | 64 | 1002.4 |
| 20260505055053 | 52 | 50 | 1.7 | 4.3 | 0.00 | 0.00 | 0.00 | 64 | 1002.4 |
| 20260505054607 | 52 | 71 | 1.7 | 4.3 | 0.00 | 0.00 | 0.00 | 64 | 1002.4 |
| 20260505054053 | 52 | 10 | 0.9 | 3.5 | 0.00 | 0.00 | 0.00 | 64 | 1002.3 |
| 20260505053550 | 52 | 34 | 1.7 | 4.3 | 0.00 | 0.00 | 0.00 | 64 | 1002.4 |
| 20260505053058 | 52 | 36 | 1.7 | 4.3 | 0.00 | 0.00 | 0.00 | 64 | 1002.4 |
| 20260505052550 | 52 | 13 | 0.9 | 3.5 | 0.00 | 0.00 | 0.00 | 64 | 1002.4 |
| 20260505052048 | 53 | 5 | 0.9 | 5.2 | 0.00 | 0.00 | 0.00 | 64 | 1002.8 |
| 20260505051548 | 53 | 341 | 1.7 | 5.2 | 0.00 | 0.00 | 0.00 | 63 | 1003.1 |
| 20260505051047 | 53 | 36 | 0.9 | 4.3 | 0.00 | 0.00 | 0.00 | 63 | 1002.9 |
| 20260505050548 | 53 | 351 | 1.7 | 4.3 | 0.00 | 0.00 | 0.00 | 62 | 1002.8 |
| 20260505041551 | 53 | 10 | 0.0 | 0.0 | 0.00 | 0.00 | 0.00 | 68 | 1004.1 |
| 20260505041039 | 53 | 10 | 0.0 | 0.0 | 0.00 | 0.00 | 0.00 | 68 | 1004.2 |
| 20260505040539 | 53 | 355 | 0.0 | 0.0 | 0.00 | 0.00 | 0.00 | 68 | 1004.3 |
| 20260505040049 | 53 | 355 | 0.0 | 0.0 | 0.00 | 0.00 | 0.00 | 68 | 1004.4 |
| 20260505035537 | 53 | 355 | 0.0 | 1.7 | 0.00 | 0.00 | 0.00 | 68 | 1004.4 |
| 20260505035036 | 53 | 355 | 0.0 | 1.7 | 0.00 | 0.00 | 0.00 | 68 | 1004.6 |
| 20260505034535 | 53 | 355 | 0.0 | 1.7 | 0.00 | 0.00 | 0.00 | 69 | 1004.6 |
| 20260505034037 | 53 | 313 | 0.0 | 0.0 | 0.00 | 0.00 | 0.00 | 70 | 1004.8 |
| 20260505033534 | 53 | 313 | 0.0 | 0.0 | 0.00 | 0.00 | 0.00 | 70 | 1004.9 |
| 20260505033033 | 53 | 310 | 0.0 | 0.0 | 0.00 | 0.00 | 0.00 | 69 | 1005.2 |
| 20260505032533 | 53 | 310 | 0.0 | 0.0 | 0.00 | 0.00 | 0.00 | 69 | 1005.2 |
| 20260505032031 | 53 | 310 | 0.0 | 0.0 | 0.00 | 0.00 | 0.00 | 69 | 1005.4 |
| 20260505031540 | 53 | 310 | 0.0 | 0.0 | 0.00 | 0.00 | 0.00 | 68 | 1005.4 |
| 20260505031032 | 53 | 310 | 0.0 | 0.0 | 0.00 | 0.00 | 0.00 | 69 | 1005.5 |
| 20260505030531 | 53 | 310 | 0.0 | 2.6 | 0.00 | 0.00 | 0.00 | 67 | 1005.6 |
| 20260505030030 | 53 | 310 | 0.0 | 2.6 | 0.00 | 0.00 | 0.00 | 66 | 1005.7 |
| 20260505025530 | 52 | 310 | 0.9 | 2.6 | 0.00 | 0.00 | 0.00 | 67 | 1005.7 |
| 20260505025028 | 52 | 313 | 0.9 | 3.5 | 0.00 | 0.00 | 0.00 | 67 | 1005.8 |
| 20260505024530 | 53 | 313 | 1.7 | 3.5 | 0.00 | 0.00 | 0.00 | 68 | 1005.9 |
| 20260505024028 | 53 | 318 | 1.7 | 2.6 | 0.00 | 0.00 | 0.00 | 66 | 1005.9 |
| 20260505023526 | 53 | 314 | 1.7 | 2.6 | 0.00 | 0.00 | 0.00 | 65 | 1006.2 |
| 20260505023026 | 53 | 321 | 0.9 | 4.3 | 0.00 | 0.00 | 0.00 | 64 | 1006.3 |
| 20260505022526 | 53 | 321 | 1.7 | 4.3 | 0.00 | 0.00 | 0.00 | 64 | 1006.4 |
| 20260505022025 | 53 | 312 | 0.0 | 2.6 | 0.00 | 0.00 | 0.00 | 66 | 1006.4 |
| 20260505021524 | 53 | 312 | 0.9 | 2.6 | 0.00 | 0.00 | 0.00 | 64 | 1006.6 |
| 20260505021023 | 53 | 312 | 0.9 | 2.6 | 0.00 | 0.00 | 0.00 | 62 | 1006.9 |
| 20260505020522 | 53 | 305 | 1.7 | 2.6 | 0.00 | 0.00 | 0.00 | 63 | 1006.9 |
| 20260505020022 | 54 | 305 | 0.9 | 2.6 | 0.00 | 0.00 | 0.00 | 63 | 1007.1 |
| 20260505015521 | 54 | 305 | 0.9 | 2.6 | 0.00 | 0.00 | 0.00 | 62 | 1007.2 |
| 20260505015020 | 54 | 305 | 0.9 | 2.6 | 0.00 | 0.00 | 0.00 | 61 | 1007.2 |
| 20260505014524 | 54 | 313 | 0.9 | 2.6 | 0.00 | 0.00 | 0.00 | 60 | 1007.4 |
| 20260505014018 | 55 | 313 | 0.0 | 2.6 | 0.00 | 0.00 | 0.00 | 59 | 1007.5 |
| 20260505013517 | 55 | 313 | 0.9 | 2.6 | 0.00 | 0.00 | 0.00 | 59 | 1007.5 |
| 20260505013017 | 55 | 313 | 0.9 | 2.6 | 0.00 | 0.00 | 0.00 | 58 | 1007.6 |
| 20260505012517 | 55 | 313 | 0.9 | 4.3 | 0.00 | 0.00 | 0.00 | 58 | 1007.7 |
| 20260505012017 | 55 | 313 | 1.7 | 4.3 | 0.00 | 0.00 | 0.00 | 57 | 1007.7 |
| 20260505011517 | 55 | 322 | 1.7 | 4.3 | 0.00 | 0.00 | 0.00 | 57 | 1007.7 |
| 20260505011017 | 55 | 323 | 1.7 | 3.5 | 0.00 | 0.00 | 0.00 | 57 | 1007.8 |
| 20260505010515 | 55 | 54 | 0.9 | 3.5 | 0.00 | 0.00 | 0.00 | 57 | 1008.0 |
| 20260505010021 | 55 | 319 | 0.9 | 3.5 | 0.00 | 0.00 | 0.00 | 57 | 1007.9 |
| 20260505005514 | 55 | 319 | 0.0 | 3.5 | 0.00 | 0.00 | 0.00 | 57 | 1008.0 |
| 20260505005114 | 55 | 323 | 0.9 | 3.5 | 0.00 | 0.00 | 0.00 | 58 | 1008.0 |
| 20260505004513 | 55 | 321 | 1.7 | 4.3 | 0.00 | 0.00 | 0.00 | 58 | 1008.1 |
| 20260505004013 | 55 | 331 | 1.7 | 4.3 | 0.00 | 0.00 | 0.00 | 57 | 1008.2 |
| 20260505003513 | 55 | 332 | 0.9 | 3.5 | 0.00 | 0.00 | 0.00 | 57 | 1008.3 |
| 20260505003011 | 55 | 324 | 0.9 | 2.6 | 0.00 | 0.00 | 0.00 | 57 | 1008.4 |
| 20260505002511 | 55 | 14 | 0.9 | 2.6 | 0.00 | 0.00 | 0.00 | 57 | 1008.4 |
| 20260505002010 | 55 | 315 | 0.9 | 2.6 | 0.00 | 0.00 | 0.00 | 57 | 1008.5 |
| 20260505001509 | 55 | 329 | 0.9 | 3.5 | 0.00 | 0.00 | 0.00 | 57 | 1008.6 |
| 20260505001008 | 55 | 333 | 0.9 | 3.5 | 0.00 | 0.00 | 0.00 | 57 | 1008.6 |
| 20260505000507 | 55 | 326 | 0.9 | 3.5 | 0.00 | 0.00 | 0.00 | 57 | 1008.8 |
| 20260505000009 | 55 | 320 | 1.7 | 3.5 | 0.00 | 0.00 | 0.00 | 56 | 1009.0 |
| 20260504235507 | 55 | 299 | 0.9 | 3.5 | 0.00 | 0.00 | 0.00 | 57 | 1009.0 |
| 20260504235004 | 55 | 312 | 0.0 | 3.5 | 0.00 | 0.00 | 0.00 | 56 | 1009.0 |
| 20260504234503 | 55 | 323 | 0.0 | 5.2 | 0.00 | 0.00 | 0.00 | 56 | 1009.2 |
| 20260504234002 | 55 | 325 | 0.9 | 5.2 | 0.00 | 0.00 | 0.00 | 58 | 1009.3 |
| 20260504233504 | 54 | 332 | 1.7 | 3.5 | 0.00 | 0.00 | 0.00 | 58 | 1009.4 |
| 20260504233002 | 54 | 317 | 0.9 | 3.5 | 0.00 | 0.00 | 0.00 | 57 | 1009.4 |
| 20260504232501 | 54 | 332 | 0.9 | 3.5 | 0.00 | 0.00 | 0.00 | 58 | 1009.6 |
| 20260504232100 | 54 | 30 | 0.9 | 2.6 | 0.00 | 0.00 | 0.00 | 58 | 1009.7 |
| 20260504231604 | 54 | 29 | 0.9 | 2.6 | 0.00 | 0.00 | 0.00 | 58 | 1009.8 |
| 20260504231059 | 54 | 324 | 0.9 | 3.5 | 0.00 | 0.00 | 0.00 | 57 | 1010.0 |
| 20260504230557 | 54 | 323 | 1.7 | 4.3 | 0.00 | 0.00 | 0.00 | 56 | 1010.1 |
| 20260504230057 | 54 | 101 | 1.7 | 4.3 | 0.00 | 0.00 | 0.00 | 56 | 1010.3 |
| 20260504225555 | 55 | 87 | 0.0 | 1.7 | 0.00 | 0.00 | 0.00 | 57 | 1010.3 |
| 20260504225053 | 55 | 63 | 0.0 | 3.5 | 0.00 | 0.00 | 0.00 | 58 | 1010.4 |
| 20260504224558 | 54 | 63 | 1.7 | 3.5 | 0.00 | 0.00 | 0.00 | 58 | 1010.6 |
| 20260504224051 | 54 | 192 | 0.0 | 0.0 | 0.00 | 0.00 | 0.00 | 57 | 1010.7 |
| 20260504223550 | 54 | 99 | 0.0 | 4.3 | 0.00 | 0.00 | 0.00 | 57 | 1010.8 |
| 20260504223107 | 54 | 67 | 0.9 | 7.0 | 0.00 | 0.00 | 0.00 | 57 | 1011.0 |
| 20260504222549 | 54 | 103 | 1.7 | 7.0 | 0.00 | 0.00 | 0.00 | 57 | 1011.1 |
| 20260504222049 | 54 | 98 | 3.5 | 7.0 | 0.00 | 0.00 | 0.00 | 58 | 1011.2 |
| 20260504221547 | 54 | 102 | 0.9 | 5.2 | 0.00 | 0.00 | 0.00 | 57 | 1011.2 |
| 20260504221049 | 54 | 45 | 0.9 | 3.5 | 0.00 | 0.00 | 0.00 | 58 | 1011.4 |
| 20260504220546 | 54 | 65 | 0.9 | 5.2 | 0.00 | 0.00 | 0.00 | 59 | 1011.4 |
| 20260504220046 | 54 | 32 | 1.7 | 5.2 | 0.00 | 0.00 | 0.00 | 58 | 1011.5 |
| 20260504215544 | 54 | 24 | 0.9 | 4.3 | 0.00 | 0.00 | 0.00 | 58 | 1011.5 |
| 20260504215043 | 54 | 98 | 0.9 | 4.3 | 0.00 | 0.00 | 0.00 | 58 | 1011.7 |
| 20260504214543 | 54 | 80 | 1.7 | 6.1 | 0.00 | 0.00 | 0.00 | 58 | 1011.8 |
| 20260504214046 | 54 | 95 | 2.6 | 5.2 | 0.00 | 0.00 | 0.00 | 58 | 1011.7 |
| 20260504213543 | 54 | 74 | 1.7 | 4.3 | 0.00 | 0.00 | 0.00 | 59 | 1011.9 |
| 20260504213053 | 54 | 36 | 1.7 | 4.3 | 0.00 | 0.00 | 0.00 | 59 | 1011.9 |
| 20260504212543 | 54 | 41 | 1.7 | 7.8 | 0.00 | 0.00 | 0.00 | 59 | 1011.9 |
| 20260504212041 | 54 | 5 | 1.7 | 7.8 | 0.00 | 0.00 | 0.00 | 59 | 1011.9 |
| 20260504211541 | 54 | 134 | 0.9 | 7.8 | 0.00 | 0.00 | 0.00 | 59 | 1012.1 |
| 20260504211040 | 54 | 13 | 1.7 | 5.2 | 0.00 | 0.00 | 0.00 | 60 | 1012.3 |
| 20260504210539 | 54 | 355 | 3.5 | 6.1 | 0.00 | 0.00 | 0.00 | 60 | 1012.4 |
| 20260504210041 | 54 | 20 | 2.6 | 6.1 | 0.00 | 0.00 | 0.00 | 59 | 1012.5 |
| 20260504205538 | 53 | 83 | 0.9 | 5.2 | 0.00 | 0.00 | 0.00 | 60 | 1012.5 |
| 20260504205040 | 53 | 44 | 1.7 | 7.0 | 0.00 | 0.00 | 0.00 | 60 | 1012.5 |
| 20260504204544 | 53 | 127 | 1.7 | 7.0 | 0.00 | 0.00 | 0.00 | 61 | 1012.5 |
| 20260504204035 | 53 | 20 | 1.7 | 6.1 | 0.00 | 0.00 | 0.00 | 62 | 1012.5 |
| 20260504203533 | 52 | 50 | 0.9 | 4.3 | 0.00 | 0.00 | 0.00 | 63 | 1012.6 |
| 20260504203038 | 52 | 76 | 1.7 | 5.2 | 0.00 | 0.00 | 0.00 | 62 | 1012.6 |
| 20260504202532 | 52 | 321 | 2.6 | 5.2 | 0.00 | 0.00 | 0.00 | 64 | 1012.7 |
| 20260504202034 | 52 | 311 | 1.7 | 8.7 | 0.00 | 0.00 | 0.00 | 63 | 1012.9 |
| 20260504201531 | 52 | 34 | 0.9 | 8.7 | 0.00 | 0.00 | 0.00 | 63 | 1012.9 |
| 20260504201032 | 52 | 42 | 1.7 | 4.3 | 0.00 | 0.00 | 0.00 | 63 | 1013.0 |